Weather History for Rocky Mount, NC

Change the Weather History Date:

Saturday, December 17, 2011

  Actual Average Record
Temperature  
Mean Temperature 36 °F -  
Max Temperature 46 °F 53 °F 77 °F (1971)
Min Temperature 26 °F 32 °F 12 °F (1958)
Degree Days  
Heating Degree Days 29    
Moisture  
Dew Point 34 °F    
Average Humidity 84    
Maximum Humidity 100    
Minimum Humidity 58    
Precipitation  
Precipitation 0.17 in - - ()
Sea Level Pressure  
Sea Level Pressure 30.20 in    
Wind  
Wind Speed 5 mph (NNE)    
Max Wind Speed 13 mph    
Max Gust Speed -    
Visibility 7 miles    
Events Fog , Rain    
Averages and records for this station are not official NWS values.
T = Trace of Precipitation, MM = Missing Value Source: NWS Daily Summary

Daily Weather History Graph

Daily Weather History Graph

Search for Another Location

Airport:

Trip Planner

Search our weather history database for the weather conditions in past years. The results will help you decide how hot, cold, wet, or windy it might be!

Date:

Astronomy

Dec. 17, 2011 Rise Set
Actual Time 7:15 AM EST 4:59 PM EST
Civil Twilight 6:47 AM EST 5:28 PM EST
Nautical Twilight 6:14 AM EST 6:00 PM EST
Astronomical Twilight 5:43 AM EST 6:31 PM EST
Moon No Moon Rise 11:42 AM EST (12/17)
Length of Visible Light 10h 41m
Length of Day
9h 44m
Waning Gibbous, 54% of the Moon is Illuminated
Dec 17
Waning Gibbous
Dec 17
Last Quarter
Dec 24
New
Jan 1
First Quarter
Jan 9
Full

Hourly Weather History & Observations

Time (EST) Temp. Windchill Dew Point Humidity Pressure Visibility Wind Dir Wind Speed Gust Speed Precip Events Conditions
12:53 AM 43.0 °F 38.2 °F 39.9 °F 89% 30.17 in 5.0 mi North 8.1 mph - 0.13 in Rain Rain
1:45 AM 42.8 °F 41.1 °F 39.2 °F 87% 30.14 in 6.0 mi ENE 3.5 mph - 0.04 in Rain Light Rain
1:53 AM 42.1 °F - 39.9 °F 92% 30.15 in 8.0 mi Calm Calm - 0.04 in   Overcast
2:22 AM 42.8 °F - 39.2 °F 87% 30.14 in 10.0 mi Calm Calm - 0.00 in   Overcast
2:53 AM 42.1 °F 39.2 °F 39.9 °F 92% 30.15 in 10.0 mi NNE 4.6 mph - 0.00 in   Overcast
3:53 AM 43.0 °F 41.3 °F 41.0 °F 93% 30.16 in 9.0 mi North 3.5 mph - N/A   Overcast
4:22 AM 42.8 °F 39.3 °F 39.2 °F 87% 30.16 in 10.0 mi North 5.8 mph - N/A   Overcast
4:34 AM 42.8 °F 39.3 °F 39.2 °F 87% 30.16 in 10.0 mi North 5.8 mph - N/A   Overcast
4:53 AM 43.0 °F 40.3 °F 39.9 °F 89% 30.16 in 10.0 mi North 4.6 mph - N/A   Overcast
5:08 AM 42.8 °F 38.6 °F 39.2 °F 87% 30.16 in 10.0 mi NNE 6.9 mph - N/A   Overcast
5:24 AM 42.8 °F 40.1 °F 39.2 °F 87% 30.16 in 10.0 mi NNE 4.6 mph - N/A   Overcast
5:34 AM 42.8 °F 38.0 °F 39.2 °F 87% 30.17 in 10.0 mi North 8.1 mph - N/A   Overcast
5:53 AM 42.1 °F 37.1 °F 39.0 °F 89% 30.18 in 10.0 mi NNE 8.1 mph - N/A   Overcast
6:22 AM 42.8 °F 38.0 °F 39.2 °F 87% 30.18 in 10.0 mi NNE 8.1 mph - N/A   Overcast
6:53 AM 42.1 °F 37.1 °F 39.0 °F 89% 30.19 in 10.0 mi NNE 8.1 mph - N/A   Overcast
7:53 AM 42.1 °F 37.1 °F 39.0 °F 89% 30.21 in 10.0 mi NNE 8.1 mph - N/A   Overcast
8:38 AM 42.8 °F 38.6 °F 39.2 °F 87% 30.21 in 10.0 mi NNE 6.9 mph - N/A   Overcast
8:53 AM 42.1 °F 36.1 °F 39.0 °F 89% 30.22 in 10.0 mi NNE 10.4 mph - N/A   Overcast
9:05 AM 42.8 °F 38.0 °F 37.4 °F 81% 30.22 in 10.0 mi NNE 8.1 mph - N/A   Overcast
9:53 AM 44.1 °F 38.6 °F 35.1 °F 71% 30.25 in 10.0 mi North 10.4 mph - N/A   Overcast
10:01 AM 42.8 °F 36.2 °F 35.6 °F 76% 30.24 in 10.0 mi North 12.7 mph - N/A   Overcast
10:53 AM 45.0 °F 41.2 °F 34.0 °F 65% 30.24 in 10.0 mi NNE 6.9 mph - N/A   Overcast
11:07 AM 44.6 °F 40.7 °F 32.0 °F 61% 30.24 in 10.0 mi NNE 6.9 mph - N/A   Overcast
11:30 AM 44.6 °F 40.2 °F 33.8 °F 66% 30.23 in 10.0 mi North 8.1 mph - N/A   Overcast
11:53 AM 44.1 °F 39.5 °F 32.0 °F 63% 30.21 in 10.0 mi NNE 8.1 mph - N/A   Overcast
12:51 PM 44.6 °F 40.7 °F 32.0 °F 61% 30.19 in 10.0 mi North 6.9 mph - N/A   Overcast
12:53 PM 45.0 °F 40.6 °F 32.0 °F 60% 30.19 in 10.0 mi North 8.1 mph - N/A   Overcast
1:53 PM 45.0 °F 42.6 °F 32.0 °F 60% 30.17 in 10.0 mi North 4.6 mph - N/A   Overcast
2:53 PM 46.0 °F 44.8 °F 32.0 °F 58% 30.16 in 10.0 mi North 3.5 mph - N/A   Mostly Cloudy
3:53 PM 45.0 °F 41.2 °F 32.0 °F 60% 30.18 in 10.0 mi NNW 6.9 mph - N/A   Mostly Cloudy
4:53 PM 43.0 °F - 32.0 °F 65% 30.19 in 10.0 mi Calm Calm - N/A   Partly Cloudy
5:53 PM 37.0 °F - 32.0 °F 82% 30.20 in 10.0 mi Calm Calm - N/A   Partly Cloudy
6:53 PM 34.0 °F - 30.9 °F 89% 30.22 in 10.0 mi Calm Calm - N/A   Clear
7:53 PM 34.0 °F - 30.9 °F 89% 30.23 in 5.0 mi Calm Calm - N/A   Clear
8:53 PM 30.9 °F - 28.9 °F 92% 30.23 in 3.0 mi Calm Calm - N/A   Clear
9:09 PM 30.2 °F - 28.4 °F 93% 30.22 in 2.5 mi Calm Calm - N/A   Clear
9:25 PM 30.2 °F - 28.4 °F 93% 30.22 in 1.5 mi Calm Calm - N/A   Partly Cloudy
9:29 PM 30.2 °F - 28.4 °F 93% 30.22 in 3.0 mi Calm Calm - N/A   Partly Cloudy
9:48 PM 30.2 °F - 28.4 °F 93% 30.22 in 2.0 mi Calm Calm - N/A   Scattered Clouds
9:53 PM 30.9 °F - 28.0 °F 89% 30.23 in 1.5 mi Calm Calm - N/A   Scattered Clouds
10:06 PM 28.4 °F - 26.6 °F 93% 30.23 in 3.0 mi Calm Calm - N/A   Clear
10:15 PM 28.4 °F - 26.6 °F 93% 30.23 in 1.8 mi Calm Calm - N/A   Clear
10:24 PM 30.2 °F - 26.6 °F 86% 30.23 in 0.5 mi Calm Calm - N/A Fog Light Freezing Fog
10:39 PM 30.2 °F - 28.4 °F 93% 30.23 in 1.0 mi Calm Calm - N/A   Clear
10:50 PM 30.2 °F - 28.4 °F 93% 30.23 in 0.5 mi Calm Calm - N/A Fog Light Freezing Fog
10:53 PM 28.9 °F - 27.0 °F 92% 30.24 in 0.5 mi Calm Calm - N/A Fog Light Freezing Fog
11:16 PM 30.2 °F - 28.4 °F 93% 30.23 in 0.5 mi Calm Calm - N/A Fog Light Freezing Fog
11:31 PM 26.6 °F - 26.6 °F 100% 30.23 in 0.5 mi Calm Calm - N/A Fog Light Freezing Fog
11:50 PM 30.2 °F - 28.4 °F 93% 30.23 in 0.8 mi Calm Calm - N/A   Clear
11:53 PM 30.0 °F - 28.0 °F 92% 30.24 in 0.8 mi Calm Calm - N/A   Clear